#timestamp,LO_Frequency,Hit,StdDev 
1557144015.8,286046998.8,P
1557144035.6,286046997.8,N
1557144055.4,286046996.6,N
1557144075.3,286046997.6,N
1557144095.1,286046997.0,N
1557144115.9,286046996.8,N
1557144135.7,286046996.9,N
1557144155.5,286047000.7,N
1557144175.4,286046999.0,N
1557144195.2,286046997.0,N
1557144215.0,286046998.0,N
1557144215.9,286046998.0,N
1557144235.8,286046996.1,N
1557144255.6,286046999.2,N
1557144275.5,286046999.2,N
1557144295.3,286046999.4,N
1557144315.1,286046998.3,N
1557144335.9,286046999.0,N
1557144355.7,286047000.8,N
1557144375.5,286047001.1,N
1557144395.4,286046999.9,N
1557144415.2,286047002.2,N
1557144435.1,286047001.7,N
1557144436.0,286047001.7,N
1557144455.8,286047001.6,N
1557144475.6,286047001.3,N
1557144495.5,286047004.0,N
1557144515.3,286047002.1,N
1557144535.2,286047004.2,N
1557144555.9,286047001.3,N
1557144575.7,286047004.3,N
1557144595.6,286047004.3,N
1557144615.4,286047003.6,N
1557144635.3,286047001.4,N
1557144655.1,286047002.5,N
1557144656.0,286047002.5,N
1557144675.8,286047001.6,N
1557144695.7,286047004.1,N
1557144715.5,286047003.4,N
1557144735.3,286047003.3,N
1557144755.2,286047001.5,N
1557144775.0,286047000.3,N
1557144775.9,286047000.3,N
1557144795.8,286046998.2,N
1557144815.6,286047000.7,N
1557144835.4,286046999.8,N
1557144855.3,286046999.8,N
1557144875.1,286047004.3,N
1557144895.8,286047003.9,N
1557144915.7,286047003.1,N
1557144935.5,286047003.5,N
1557144955.4,286047003.3,N
1557144975.2,286047001.5,N
1557144995.0,286047002.4,N
1557144995.9,286047002.4,N
1557145015.8,286047002.7,N
1557145035.6,286047000.3,N
1557145055.4,286046999.7,N
1557145075.3,286047000.6,N
1557145095.1,286047000.9,N
1557145115.9,286046998.3,N
1557145135.7,286046998.6,N
1557145155.5,286046998.6,N
1557145175.4,286046999.0,N
1557145195.2,286046998.3,N
1557145215.0,286046998.4,N
1557145215.9,286046998.4,N
1557145235.8,286046998.2,N
1557145255.6,286046998.9,N
1557145275.5,286046999.1,N
1557145295.3,286046999.0,N
1557145315.1,286046998.8,N
1557145335.9,286046998.1,N
1557145355.7,286047000.6,N
1557145375.5,286047000.2,N
1557145395.4,286047000.9,N
1557145415.2,286046999.9,N
1557145435.1,286047000.2,N
1557145436.0,286047000.2,N
1557145455.8,286047001.0,N
1557145475.6,286047000.4,N
1557145495.5,286047002.6,N
1557145515.3,286047002.2,N
1557145535.2,286047001.9,N
1557145555.9,286047003.8,N
1557145575.7,286047001.6,N
1557145595.6,286046999.8,N
1557145615.4,286047000.3,N
1557145635.2,286047001.6,N
1557145655.1,286047000.3,N
1557145656.0,286047000.3,N
1557145675.8,286046999.1,N
1557145695.7,286046999.4,N
1557145715.5,286046999.3,N
1557145735.3,286046996.5,N
1557145755.2,286046999.4,N
1557145775.0,286046999.0,N
1557145775.9,286046999.0,N
1557145795.8,286046998.8,N
1557145815.6,286047001.0,N
1557145835.4,286047000.8,N
1557145855.3,286047001.9,N
1557145875.1,286047002.6,N
1557145895.8,286047001.1,N
1557145915.7,286047001.1,N
1557145935.5,286046999.4,N
1557145955.3,286046997.7,N
1557145975.2,286046995.4,Y
1557145995.0,286046995.5,P
1557145995.9,286046995.5,N
1557146015.8,286046997.2,N
1557146035.6,286046999.6,N
1557146055.4,286046997.6,N
1557146075.3,286046997.2,N
1557146095.1,286046998.9,N
1557146115.9,286047001.2,N
1557146135.7,286046998.2,N
1557146155.5,286047001.2,N
1557146175.4,286046998.4,N
1557146195.2,286046997.2,N
1557146215.0,286046997.0,N
1557146216.0,286046997.0,N
1557146235.8,286046997.2,N
1557146255.6,286046998.0,N
1557146275.5,286046995.1,N
1557146295.3,286046993.5,Y
1557146315.1,286046997.3,P
1557146335.9,286046999.3,N
1557146355.7,286046999.4,N
1557146375.6,286047002.8,Y
1557146395.4,286047002.7,P
1557146415.2,286047002.0,N
1557146435.1,286047004.3,N
1557146436.0,286047004.3,N
1557146455.8,286047001.7,N
1557146475.7,286047001.6,N
1557146495.5,286047004.2,N
1557146515.3,286047003.5,N
1557146535.2,286047003.3,N
1557146555.0,286047001.8,N
1557146555.9,286047001.8,N
1557146575.8,286047002.2,N
1557146595.6,286047000.5,N
1557146615.4,286047002.0,N
1557146635.3,286047003.9,N
1557146655.1,286047003.8,N
1557146675.8,286047005.9,Y
1557146695.7,286047003.9,P
1557146715.5,286046999.9,N
1557146735.4,286046999.9,N
1557146755.2,286047000.0,N
1557146775.0,286046998.5,N
1557146775.9,286046998.5,N
1557146795.8,286046999.3,N
1557146815.6,286046998.9,N
1557146835.4,286046998.6,N
1557146855.3,286047001.1,N
1557146875.1,286046998.1,N
1557146895.9,286047000.5,N
1557146915.7,286047001.0,N
1557146935.5,286046998.4,N
1557146955.4,286046998.7,N
1557146975.2,286046998.1,N
1557146995.0,286047000.2,N
1557146996.0,286047000.2,N
1557147015.8,286047002.4,N
1557147035.6,286047000.7,N
1557147055.5,286046999.1,N
1557147075.3,286046998.2,N
1557147095.1,286046998.7,N
1557147115.9,286046998.8,N
1557147135.7,286047001.2,N
1557147155.6,286046998.5,N
1557147175.4,286046998.4,N
1557147195.2,286046999.1,N
1557147215.1,286046996.6,N
1557147216.0,286046996.6,N
1557147235.8,286046999.0,N
1557147255.6,286046999.9,N
1557147275.5,286047002.8,N
1557147295.3,286047002.8,N
1557147315.2,286047004.4,N
1557147335.9,286047001.6,N
1557147355.7,286047002.4,N
1557147375.6,286047001.6,N
1557147395.4,286046999.9,N
1557147415.2,286047000.0,N
1557147435.1,286046998.2,N
1557147436.0,286046998.2,N
1557147455.8,286046998.9,N
1557147475.7,286046998.2,N
1557147495.5,286047000.2,N
1557147515.3,286046999.7,N
1557147535.2,286047000.5,N
1557147555.0,286047000.7,N
1557147555.9,286047000.7,N
1557147575.8,286047002.6,N
1557147595.6,286047002.0,N
